Regional Weather Roundup
Issued by NWS Upton, NY

Current Version | Previous Version | Graphics & Text | Print | Product List | Glossary Off
Versions: 1 2 3 4 5 6 7 8 9 10 11 12 13 14 15 16 17 18 19 20 21 22 23 24 25 26 27 28 29 30 31 32 33 34 35 36 37 38 39 40 41 42 43 44 45 46 47 48 49 50

000
ASUS41 KOKX 260805
RWROKX

REGIONAL WEATHER ROUNDUP
NATIONAL WEATHER SERVICE NEW YORK NY
300 AM EST MON JAN 26 2015

NOTE: "FAIR" INDICATES FEW OR NO CLOUDS BELOW 12,000 FEET WITH NO
SIGNIFICANT WEATHER AND/OR OBSTRUCTIONS TO VISIBILITY.

NYZ071-072-176-178-NJZ106-104-260900-
NEW YORK CITY METRO AREA


CITY           SKY/WX    TMP DP  RH WIND       PRES   REMARKS
CENTRAL PARK   CLOUDY    26   3  37 NE12      30.03F WCI  16
LAGUARDIA APRT CLOUDY    25   5  42 NE10      30.02F WCI  15
KENNEDY INTL   CLOUDY    28   6  39 NE12      30.02F WCI  18
NEWARK/LIBERTY CLOUDY    25  12  58 N13       30.02S WCI  14
BRNX BOT. GARD   N/A    N/A N/A N/A SW1       30.04F
TETERBORO      CLOUDY    25   4  40 NE8       30.02S WCI  16
$$

NYZ177-179-078>081-260900-
LONG ISLAND NEW YORK

CITY           SKY/WX    TMP DP  RH WIND       PRES   REMARKS
FARMINGDALE    CLOUDY    26   9  48 NE9       30.03S WCI  17
ISLIP          CLOUDY    26  11  52 NE13      30.02S WCI  15
SHIRLEY        CLOUDY    26  11  52 VRB5      30.04S WCI  20
WESTHAMPTON    CLOUDY    26   9  48 NE10      30.05R WCI  16
MONTAUK POINT    N/A     27   8  44 NE7       30.06R WCI  19
$$

NYZ052-065-067-260900-
HUDSON VALLEY

CITY           SKY/WX    TMP DP  RH WIND       PRES   REMARKS
WHITE PLAINS   CLOUDY    21   3  45 NE6       30.01R WCI  13
NEWBURGH       CLOUDY    18   5  57 NE12G17   30.03  WCI   5
MONTGOMERY     CLOUDY    18   2  49 NE14      30.02S WCI   4
POUGHKEEPSIE   CLOUDY    19   2  47 N9        30.06S WCI   8
ALBANY         MOCLDY    11  -1  58 N6        30.11R WCI   1
$$

NJZ001-105-106-008-010-013-015-019>022-104-260900-
NEW JERSEY

CITY           SKY/WX    TMP DP  RH WIND       PRES   REMARKS
NEWARK/LIBERTY CLOUDY    25  12  58 N13       30.02S WCI  14
TETERBORO      CLOUDY    25   4  40 NE8       30.02S WCI  16
CALDWELL       CLOUDY    23   4  44 E13       30.02S WCI  11
MORRISTOWN     CLOUDY    27   9  46 NE7       30.00F WCI  19
SOMERVILLE     CLOUDY    28  15  58 E9        29.99R WCI  19
SUSSEX         CLOUDY    20   2  45 NE9       30.00R WCI   9
ANDOVER          N/A     20   6  55 NE7       29.99S WCI  11
TRENTON        LGT SNOW  27  20  75 NE10      29.97S WCI  17
MILLVILLE      CLOUDY    34  25  69 E14       29.91F WCI  25
ATLANTIC CITY  CLOUDY    34  25  69 E13       29.93F WCI  25
WRIGHTSTOWN    FLURRIES  28  23  80 NE8       29.95R WCI  20
TOMS RIVER     CLOUDY    32  25  74 NE12G17   29.97S WCI  23
BELMAR         CLOUDY    30  18  59 NE10      29.98R WCI  21
$$

PAZ047>061-062-071-260900-
EASTERN PENNSYLVANIA

CITY           SKY/WX    TMP DP  RH WIND       PRES   REMARKS
PHILADELPHIA   FLURRIES  30  23  75 E13       29.96F WCI  20
ALLENTOWN      LGT SNOW  24  15  68 NE15      29.97R WCI  11
SCRANTON       CLOUDY    18   5  57 NE7       29.94S WCI   9
$$

CTZ002-004>006-009-010-012-RIZ004-006-007-MAZ004-011-015-260900-
SOUTHERN NEW ENGLAND
 IN CT

CITY           SKY/WX    TMP DP  RH WIND       PRES   REMARKS
BRADLEY INTL   CLOUDY    18   3  52 N9        30.06S WCI   7
HARTFORD       CLOUDY    19   5  54 N8        30.07S WCI   9
DANBURY        CLOUDY    19   2  47 NE8       30.04R WCI   9
WTRBRY/OXFORD  CLOUDY    18   0  45 N7        30.00S WCI   8
BRIDGEPORT     CLOUDY    23   7  50 NE7       30.06R WCI  15
MERIDEN        CLOUDY    20   5  52 N7        30.05R WCI  11
NEW HAVEN      CLOUDY    22   7  52 N12       30.05R WCI  10
CHESTER        FAIR      21   7  53 NE5       30.03R WCI  15
GROTON         CLOUDY    22   6  50 N10       30.05R WCI  11
WILLIMANTIC    CLOUDY    19   6  57 N6        30.06R WCI  11

 IN RI

CITY           SKY/WX    TMP DP  RH WIND       PRES   REMARKS
PROVIDENCE     CLOUDY    21   6  52 N8        30.08R WCI  11
BLOCK ISLAND   MOCLDY    27   9  46 NE13G18   30.03R WCI  16
WESTERLY       CLOUDY    22   6  50 N9        30.05R WCI  12

 IN MA

CITY           SKY/WX    TMP DP  RH WIND       PRES   REMARKS
BOSTON         CLOUDY    14  -1  51 NW12      30.09R WCI   0
WORCESTER      MOCLDY    12   0  58 N7        29.99R WCI   1
WESTFIELD      CLOUDY    14   3  61 N5        30.06S WCI   6
PROVINCETOWN   NOT AVBL
NANTUCKET      MOCLDY    27  13  55 N14       30.04S WCI  16
$$

ANZ330-335-338-340-345-350-353-355-260900-
COASTAL MARINE OBSERVATIONS


STATION/POSITION TIME  SKY/WX   TEMP    WIND        PRES    VSBY  WAVE
                                AIR SEA DIR/SP/G                  HT/PER
                 (UTC)          (F)     (DEG/KT/KT) (MB)    (MI)  (FT/S)
NY HARB ENTRANCE 0800            29 42   50/ 17/ 21 1015.4          3/11
4S FIRE IS       0800               39                N/A           3/11
20S FIRE ISLAND  0700               41              1016.2          4/11
23SW MTP         0800                                 N/A           4/11
HUDSON CANYON    NOT AVBL
EXECUTION ROCKS  0800            27 35   60/ 14/ 17   N/A
WESTERN LI SOUND 0800            25      60/ 12/ 16   N/A           1/ 3
CENTRAL LI SOUND 0700            25 36   40/ 12/ 14   N/A           2/ 3
EASTERN LI SOUND NOT AVBL
ROBBINS REEF     0800            26      50/ 18/ 21 1015.0
$$


>>>>>>>>>>>>>>>>>>>>>>>>>>>> KEY <<<<<<<<<<<<<<<<<<<<<<<<<<<
>                                                          <
>     SKY/WX - SKY CONDITION/PRESENT WEATHER               <
>     TMP    - TEMPERATURE IN FAHRENHEIT                   <
>     DP     - DEWPOINT IN FAHRENHEIT                      <
>     RH     - RELATIVE HUMIDITY IN PERCENT                <
>     WIND   - DIRECTION AND SPEED IN MPH                  <
>     PRES   - MEAN SEA LEVEL PRESSURE IN INCHES OF HG     <
>     WCI    - WIND CHILL INDEX                            <
>     VSB    - VISIBILITY IN MILES                         <
>     HX     - HEAT INDEX                                  <
>     TC     - TEMPERATURE IN CELSIUS                      <
>     VRB    - VARIABLE WIND DIRECTION                     <
>                                                          <
>>>>>>>>>>>>>>>>>>>>>>>>>>>> KEY <<<<<<<<<<<<<<<<<<<<<<<<<<<





USA.gov is the U.S. government's official web portal to all federal, state and local government web resources and services.